TVF4217 LDSP-LFPO

Flight info

Callsign TVF4217
Flight time 1h 50m
Altitude 36000
Route ZDA DCT EBITA DCT LABIN DCT OTKEK DCT VAKON DCT SRN DCT INVOP DCT CERVI DCT MOLUS DCT UNKIR DCT DJL
Aircraft B738/M-SDE2E3FGHIRWXY/LB1

Departure

Time 2026-04-30 18:05
Airport Split Saint Jerome Airport (LDSP)

Arrival

Time 2026-04-30 19:55
Airport Paris-Orly Airport (LFPO)
Time Latitude Longitude Altitude Speed Heading
2026-04-30 17:39 43.53727 16.29869 59 ft 0 kts 115°
2026-04-30 17:49 43.53738 16.29811 60 ft 2 kts 90°
2026-04-30 17:50 43.53770 16.29814 60 ft 2 kts 228°
2026-04-30 17:51 43.53774 16.29821 60 ft 0 kts 229°
2026-04-30 17:53 43.53720 16.29723 61 ft 5 kts 233°
2026-04-30 17:54 43.53702 16.29691 61 ft 0 kts 232°
2026-04-30 17:58 43.53683 16.29657 61 ft 2 kts 233°
2026-04-30 17:59 43.53668 16.29606 62 ft 0 kts 282°
2026-04-30 18:00 43.53691 16.29559 63 ft 6 kts 300°
2026-04-30 18:01 43.53666 16.29378 69 ft 12 kts 235°
2026-04-30 18:02 43.53405 16.28915 69 ft 24 kts 231°
2026-04-30 18:02 43.53213 16.28573 61 ft 4 kts 62°
2026-04-30 18:03 43.53222 16.28590 61 ft 0 kts 53°
2026-04-30 18:04 43.53261 16.28662 64 ft 30 kts 52°
2026-04-30 18:05 43.54965 16.32787 1453 ft 159 kts 90°
2026-04-30 18:06 43.51618 16.37649 3738 ft 202 kts 149°
2026-04-30 18:07 43.46363 16.40677 5512 ft 217 kts 187°
2026-04-30 18:08 43.42741 16.36189 6503 ft 262 kts 235°
2026-04-30 18:09 43.38099 16.27404 9076 ft 292 kts 247°
2026-04-30 18:10 43.38465 16.16414 11417 ft 319 kts 302°
2026-04-30 18:11 43.45169 16.07943 14395 ft 337 kts 323°
2026-04-30 18:11 43.50779 16.01898 16783 ft 347 kts 322°
2026-04-30 18:12 43.56527 15.95576 19012 ft 358 kts 322°
2026-04-30 18:13 43.60435 15.91262 20462 ft 364 kts 321°
2026-04-30 18:13 43.66424 15.84642 22520 ft 374 kts 321°
2026-04-30 18:14 43.70493 15.80134 23798 ft 379 kts 321°
2026-04-30 18:15 43.76733 15.73205 25523 ft 389 kts 321°
2026-04-30 18:15 43.83118 15.66112 27087 ft 397 kts 321°
2026-04-30 18:16 43.87458 15.61258 28032 ft 404 kts 321°
2026-04-30 18:16 43.91853 15.56336 29068 ft 407 kts 321°
2026-04-30 18:17 43.94045 15.53879 29434 ft 412 kts 321°
2026-04-30 18:17 43.96286 15.51365 29850 ft 415 kts 321°
2026-04-30 18:17 44.00841 15.46250 30665 ft 421 kts 321°
2026-04-30 18:18 44.03140 15.43665 31032 ft 423 kts 321°
2026-04-30 18:18 44.05424 15.41085 31319 ft 425 kts 321°
2026-04-30 18:18 44.07613 15.38393 31726 ft 423 kts 317°
2026-04-30 18:18 44.09657 15.35488 32140 ft 420 kts 313°
2026-04-30 18:19 44.11480 15.32409 32487 ft 420 kts 308°
2026-04-30 18:19 44.13212 15.29131 32810 ft 420 kts 306°
2026-04-30 18:19 44.14873 15.25802 33154 ft 419 kts 305°
2026-04-30 18:19 44.16485 15.22490 33533 ft 418 kts 305°
2026-04-30 18:20 44.18117 15.19108 33876 ft 417 kts 304°
2026-04-30 18:20 44.19735 15.15751 34303 ft 416 kts 305°
2026-04-30 18:20 44.21351 15.12405 34630 ft 417 kts 305°
2026-04-30 18:20 44.22969 15.09060 35017 ft 416 kts 305°
2026-04-30 18:21 44.24572 15.05753 35377 ft 416 kts 305°
2026-04-30 18:21 44.26188 15.02421 35761 ft 414 kts 306°
2026-04-30 18:21 44.27797 14.99102 36078 ft 414 kts 306°
2026-04-30 18:21 44.29422 14.95751 36250 ft 417 kts 306°
2026-04-30 18:22 44.31051 14.92390 36274 ft 420 kts 306°
2026-04-30 18:22 44.35894 14.82370 36276 ft 417 kts 306°
2026-04-30 18:23 44.39075 14.75594 36271 ft 417 kts 303°
2026-04-30 18:23 44.41812 14.68476 36267 ft 418 kts 299°
2026-04-30 18:24 44.45708 14.57554 36264 ft 419 kts 299°
2026-04-30 18:25 44.48328 14.50286 36270 ft 418 kts 300°
2026-04-30 18:25 44.52259 14.39457 36268 ft 417 kts 300°
2026-04-30 18:26 44.56221 14.28545 36276 ft 419 kts 299°
2026-04-30 18:27 44.60174 14.17632 36279 ft 420 kts 300°
2026-04-30 18:28 44.64132 14.06655 36274 ft 420 kts 300°
2026-04-30 18:28 44.68073 13.95683 36276 ft 420 kts 300°
2026-04-30 18:29 44.73309 13.81035 36278 ft 421 kts 300°
2026-04-30 18:30 44.78530 13.66352 36281 ft 422 kts 300°
2026-04-30 18:31 44.82429 13.55331 36281 ft 422 kts 300°
2026-04-30 18:32 44.86336 13.44243 36277 ft 422 kts 300°
2026-04-30 18:33 44.90245 13.33104 36279 ft 422 kts 300°
2026-04-30 18:33 44.94129 13.21996 36281 ft 424 kts 300°
2026-04-30 18:34 44.97930 13.10725 36281 ft 425 kts 296°
2026-04-30 18:35 44.99723 13.02762 36282 ft 430 kts 289°
2026-04-30 18:35 45.01115 12.94565 36281 ft 431 kts 288°
2026-04-30 18:36 45.03118 12.82185 36284 ft 430 kts 288°
2026-04-30 18:37 45.05120 12.69892 36280 ft 429 kts 288°
2026-04-30 18:37 45.06454 12.61729 36283 ft 429 kts 288°
2026-04-30 18:38 45.07795 12.53489 36278 ft 428 kts 288°
2026-04-30 18:38 45.09122 12.45307 36207 ft 428 kts 288°
2026-04-30 18:39 45.10457 12.37054 36292 ft 433 kts 288°
2026-04-30 18:39 45.11783 12.28797 36282 ft 430 kts 288°
2026-04-30 18:40 45.13103 12.20537 36321 ft 431 kts 288°
2026-04-30 18:40 45.14417 12.12279 36312 ft 430 kts 288°
2026-04-30 18:41 45.15715 12.04069 36321 ft 431 kts 288°
2026-04-30 18:41 45.17018 11.95794 36301 ft 428 kts 288°
2026-04-30 18:42 45.18298 11.87623 36310 ft 428 kts 288°
2026-04-30 18:42 45.20228 11.75237 36302 ft 430 kts 288°
2026-04-30 18:45 45.27176 11.29801 36304 ft 431 kts 287°
2026-04-30 18:46 45.28423 11.21502 36295 ft 429 kts 287°
2026-04-30 18:46 45.29655 11.13274 36305 ft 431 kts 288°
2026-04-30 18:47 45.30893 11.04949 36305 ft 430 kts 288°
2026-04-30 18:47 45.32120 10.96670 36293 ft 430 kts 287°
2026-04-30 18:48 45.33338 10.88401 36296 ft 430 kts 287°
2026-04-30 18:48 45.34558 10.80067 36298 ft 429 kts 287°
2026-04-30 18:49 45.35760 10.71821 36301 ft 430 kts 287°
2026-04-30 18:49 45.36970 10.63505 36300 ft 431 kts 288°
2026-04-30 18:50 45.38329 10.55262 36294 ft 429 kts 290°
2026-04-30 18:50 45.39779 10.47047 36283 ft 430 kts 290°
2026-04-30 18:51 45.41221 10.38822 36292 ft 430 kts 290°
2026-04-30 18:51 45.42640 10.30619 36287 ft 430 kts 289°
2026-04-30 18:52 45.44060 10.22307 36276 ft 432 kts 289°
2026-04-30 18:52 45.45453 10.14082 36277 ft 431 kts 289°
2026-04-30 18:53 45.46846 10.05802 36274 ft 431 kts 289°
2026-04-30 18:53 45.48235 9.97531 36269 ft 431 kts 289°
2026-04-30 18:54 45.49668 9.89312 36275 ft 432 kts 289°
2026-04-30 18:54 45.51128 9.81033 36276 ft 432 kts 289°
2026-04-30 18:55 45.52579 9.72766 36272 ft 432 kts 289°
2026-04-30 18:55 45.54734 9.60353 36282 ft 433 kts 289°
2026-04-30 18:56 45.56876 9.47895 36283 ft 434 kts 289°
2026-04-30 18:57 45.59005 9.35426 36284 ft 433 kts 289°
2026-04-30 18:57 45.60398 9.27213 36269 ft 434 kts 288°
2026-04-30 18:58 45.62526 9.14614 36280 ft 436 kts 288°
2026-04-30 18:59 45.64618 9.02118 36274 ft 436 kts 288°
2026-04-30 19:00 45.67643 8.85496 36262 ft 435 kts 289°
2026-04-30 19:01 45.70735 8.68804 36270 ft 438 kts 289°
2026-04-30 19:02 45.73014 8.56300 36268 ft 437 kts 289°
2026-04-30 19:03 45.76039 8.39512 36268 ft 438 kts 289°
2026-04-30 19:04 45.79022 8.22798 36291 ft 440 kts 288°
2026-04-30 19:05 45.82630 8.06480 36302 ft 436 kts 295°
2026-04-30 19:06 45.87231 7.90263 36272 ft 456 kts 295°
2026-04-30 19:06 45.90743 7.77612 36268 ft 456 kts 295°
2026-04-30 19:07 45.93001 7.69324 36275 ft 426 kts 295°
2026-04-30 19:07 45.94057 7.65421 36279 ft 426 kts 295°
2026-04-30 19:08 45.96331 7.57457 36285 ft 440 kts 298°
2026-04-30 19:08 45.99456 7.49881 36278 ft 452 kts 308°
2026-04-30 19:09 46.05188 7.39384 36273 ft 452 kts 312°
2026-04-30 19:09 46.09082 7.32517 36267 ft 455 kts 311°
2026-04-30 19:10 46.16848 7.18600 36264 ft 457 kts 310°
2026-04-30 19:11 46.22759 7.07844 36252 ft 457 kts 310°
2026-04-30 19:12 46.26683 7.00663 36238 ft 457 kts 310°
2026-04-30 19:12 46.30603 6.93466 36244 ft 459 kts 310°
2026-04-30 19:13 46.38370 6.79149 36249 ft 460 kts 310°
2026-04-30 19:14 46.42278 6.71915 36229 ft 461 kts 310°
2026-04-30 19:14 46.46016 6.64355 36220 ft 463 kts 304°
2026-04-30 19:15 46.49239 6.56366 36202 ft 463 kts 302°
2026-04-30 19:15 46.53892 6.44207 36187 ft 465 kts 301°
2026-04-30 19:16 46.57046 6.36034 36190 ft 466 kts 302°
2026-04-30 19:17 46.61828 6.23740 36197 ft 467 kts 301°
2026-04-30 19:17 46.66624 6.11425 36190 ft 470 kts 301°
2026-04-30 19:18 46.71415 5.99076 36179 ft 469 kts 301°
2026-04-30 19:19 46.74594 5.90850 36166 ft 471 kts 301°
2026-04-30 19:19 46.79401 5.78433 36149 ft 472 kts 302°
2026-04-30 19:20 46.83081 5.70647 36144 ft 470 kts 313°
2026-04-30 19:21 46.89918 5.60740 36139 ft 469 kts 320°
2026-04-30 19:22 46.99462 5.47997 36139 ft 470 kts 319°
2026-04-30 19:23 47.13575 5.28618 36146 ft 473 kts 318°
2026-04-30 19:24 47.20570 5.18880 36148 ft 474 kts 317°
2026-04-30 19:25 47.32124 5.02320 36160 ft 473 kts 315°
2026-04-30 19:26 47.36489 4.95506 36063 ft 452 kts 315°
2026-04-30 19:26 47.40831 4.88699 34324 ft 466 kts 315°
2026-04-30 19:26 47.43059 4.85221 33451 ft 469 kts 315°
2026-04-30 19:27 47.47493 4.78310 31960 ft 467 kts 315°
2026-04-30 19:27 47.51886 4.71465 30866 ft 457 kts 315°
2026-04-30 19:28 47.54049 4.68093 30263 ft 453 kts 315°
2026-04-30 19:28 47.58376 4.61343 28966 ft 456 kts 315°
2026-04-30 19:29 47.62820 4.54403 27521 ft 470 kts 315°
2026-04-30 19:29 47.65038 4.50927 27196 ft 459 kts 315°
2026-04-30 19:30 47.71643 4.40553 27155 ft 463 kts 315°
2026-04-30 19:30 47.76068 4.33581 27147 ft 463 kts 314°
2026-04-30 19:31 47.80470 4.26628 27145 ft 464 kts 314°
2026-04-30 19:31 47.82692 4.23110 27141 ft 464 kts 314°
2026-04-30 19:31 47.86924 4.15839 27142 ft 466 kts 305°
2026-04-30 19:32 47.88504 4.11627 27094 ft 467 kts 294°
2026-04-30 19:32 47.89616 4.07114 26755 ft 468 kts 287°
2026-04-30 19:32 47.90449 4.02445 26229 ft 463 kts 283°
2026-04-30 19:32 47.91123 3.97784 25665 ft 457 kts 281°
2026-04-30 19:33 47.91723 3.93178 25110 ft 452 kts 280°
2026-04-30 19:33 47.92298 3.88628 24564 ft 450 kts 280°
2026-04-30 19:33 47.92878 3.84087 24017 ft 448 kts 281°
2026-04-30 19:33 47.93472 3.79551 23472 ft 446 kts 281°
2026-04-30 19:34 47.94082 3.75018 22865 ft 442 kts 281°
2026-04-30 19:34 47.94690 3.70586 22248 ft 437 kts 281°
2026-04-30 19:34 47.95957 3.61865 21085 ft 429 kts 284°
2026-04-30 19:35 47.96896 3.57634 20495 ft 426 kts 293°
2026-04-30 19:35 47.98260 3.53777 19913 ft 422 kts 304°
2026-04-30 19:35 48.00042 3.50323 19337 ft 417 kts 313°
2026-04-30 19:35 48.02039 3.47243 18761 ft 413 kts 317°
2026-04-30 19:36 48.04126 3.44343 18179 ft 409 kts 319°
2026-04-30 19:36 48.06201 3.41514 17565 ft 406 kts 319°
2026-04-30 19:36 48.10268 3.35763 16202 ft 403 kts 317°
2026-04-30 19:37 48.12256 3.32825 15508 ft 401 kts 316°
2026-04-30 19:37 48.14214 3.29873 14819 ft 399 kts 315°
2026-04-30 19:37 48.16147 3.26921 14127 ft 397 kts 315°
2026-04-30 19:37 48.18044 3.24003 13453 ft 394 kts 315°
2026-04-30 19:38 48.19946 3.21068 12704 ft 389 kts 315°
2026-04-30 19:38 48.21795 3.18212 11955 ft 379 kts 314°
2026-04-30 19:38 48.23590 3.15441 11445 ft 365 kts 314°
2026-04-30 19:38 48.25346 3.12732 11022 ft 357 kts 314°
2026-04-30 19:39 48.27034 3.10127 10606 ft 350 kts 314°
2026-04-30 19:39 48.28730 3.07509 10178 ft 343 kts 314°
2026-04-30 19:39 48.30379 3.04961 9757 ft 338 kts 314°
2026-04-30 19:39 48.31982 3.02481 9341 ft 332 kts 314°
2026-04-30 19:40 48.33574 3.00015 8918 ft 328 kts 314°
2026-04-30 19:40 48.35159 2.97557 8522 ft 323 kts 314°
2026-04-30 19:40 48.36714 2.95143 8246 ft 322 kts 314°
2026-04-30 19:40 48.38263 2.92738 7966 ft 322 kts 314°
2026-04-30 19:41 48.39812 2.90329 7690 ft 321 kts 314°
2026-04-30 19:41 48.41363 2.87916 7415 ft 319 kts 314°
2026-04-30 19:41 48.42884 2.85547 7154 ft 318 kts 314°
2026-04-30 19:41 48.44384 2.83099 6876 ft 315 kts 308°
2026-04-30 19:42 48.45536 2.80339 6620 ft 313 kts 291°
2026-04-30 19:42 48.45982 2.77151 6375 ft 310 kts 273°
2026-04-30 19:42 48.46038 2.73927 6134 ft 309 kts 269°
2026-04-30 19:42 48.46020 2.70719 5892 ft 309 kts 269°
2026-04-30 19:43 48.46028 2.67512 5637 ft 309 kts 270°
2026-04-30 19:43 48.46169 2.64274 5410 ft 309 kts 278°
2026-04-30 19:43 48.46832 2.61223 5186 ft 310 kts 295°
2026-04-30 19:44 48.48986 2.55582 4780 ft 309 kts 296°
2026-04-30 19:44 48.49825 2.52634 4594 ft 309 kts 291°
2026-04-30 19:44 48.50572 2.49601 4416 ft 309 kts 289°
2026-04-30 19:44 48.51294 2.46582 4260 ft 308 kts 289°
2026-04-30 19:45 48.52007 2.43583 4058 ft 299 kts 289°
2026-04-30 19:45 48.52695 2.40690 3864 ft 288 kts 289°
2026-04-30 19:45 48.53359 2.37896 3750 ft 277 kts 289°
2026-04-30 19:45 48.54008 2.35160 3712 ft 275 kts 289°
2026-04-30 19:46 48.54643 2.32476 3680 ft 275 kts 289°
2026-04-30 19:46 48.55289 2.29746 3642 ft 276 kts 289°
2026-04-30 19:46 48.55927 2.27054 3610 ft 274 kts 289°
2026-04-30 19:46 48.56567 2.24341 3532 ft 274 kts 289°
2026-04-30 19:47 48.57205 2.21635 3501 ft 275 kts 289°
2026-04-30 19:47 48.57635 2.19815 3471 ft 275 kts 289°
2026-04-30 19:47 48.58492 2.16200 3425 ft 275 kts 289°
2026-04-30 19:47 48.59139 2.13484 3387 ft 274 kts 289°
2026-04-30 19:48 48.59780 2.10798 3352 ft 275 kts 289°
2026-04-30 19:48 48.60589 2.08299 3285 ft 262 kts 309°
2026-04-30 19:48 48.61979 2.06764 3207 ft 243 kts 340°
2026-04-30 19:48 48.63583 2.06243 3133 ft 225 kts 360°
2026-04-30 19:49 48.65076 2.06330 3058 ft 208 kts
2026-04-30 19:49 48.67444 2.07597 3009 ft 164 kts 61°
2026-04-30 19:49 48.67669 2.09192 3043 ft 155 kts 99°
2026-04-30 19:50 48.67584 2.10814 3042 ft 158 kts 89°
2026-04-30 19:50 48.67744 2.12454 3032 ft 158 kts 82°
2026-04-30 19:50 48.67964 2.14085 3029 ft 159 kts 81°
2026-04-30 19:50 48.68224 2.15697 2997 ft 154 kts 79°
2026-04-30 19:51 48.68491 2.17224 2788 ft 150 kts 79°
2026-04-30 19:51 48.68761 2.18711 2583 ft 143 kts 78°
2026-04-30 19:51 48.69024 2.20156 2335 ft 141 kts 79°
2026-04-30 19:51 48.69285 2.21542 2128 ft 136 kts 78°
2026-04-30 19:52 48.69561 2.22916 1901 ft 134 kts 77°
2026-04-30 19:52 48.69805 2.24231 1749 ft 129 kts 81°
2026-04-30 19:52 48.70054 2.25566 1638 ft 134 kts 76°
2026-04-30 19:52 48.70305 2.26937 1477 ft 137 kts 79°
2026-04-30 19:53 48.70553 2.28313 1339 ft 137 kts 77°
2026-04-30 19:53 48.70814 2.29738 1111 ft 144 kts 76°
2026-04-30 19:53 48.71072 2.31150 932 ft 138 kts 75°
2026-04-30 19:53 48.71331 2.32519 754 ft 135 kts 77°
2026-04-30 19:54 48.71584 2.33890 574 ft 136 kts 76°
2026-04-30 19:54 48.71834 2.35276 400 ft 135 kts 75°
2026-04-30 19:54 48.72075 2.36609 287 ft 128 kts 76°
2026-04-30 19:54 48.72282 2.37721 288 ft 83 kts 75°
2026-04-30 19:55 48.72405 2.38379 287 ft 51 kts 73°
2026-04-30 19:55 48.72541 2.38631 286 ft 16 kts 23°
2026-04-30 19:55 48.72581 2.38655 286 ft 1 kts 20°
2026-04-30 19:55 48.72599 2.38665 287 ft 3 kts 19°
2026-04-30 19:56 48.72628 2.38681 287 ft 5 kts 19°
2026-04-30 19:56 48.72668 2.38702 287 ft 6 kts 19°
2026-04-30 19:56 48.72712 2.38724 287 ft 8 kts 17°
2026-04-30 19:56 48.72758 2.38746 287 ft 0 kts 17°
2026-04-30 19:57 48.72768 2.38751 287 ft 2 kts 17°
2026-04-30 19:57 48.72793 2.38761 287 ft 1 kts
2026-04-30 19:57 48.72803 2.38761 287 ft 0 kts 355°
2026-04-30 19:58 48.72810 2.38760 288 ft 2 kts 348°
2026-04-30 19:58 48.72829 2.38743 288 ft 4 kts 315°
2026-04-30 19:58 48.72843 2.38696 288 ft 5 kts 272°
2026-04-30 19:59 48.72839 2.38621 289 ft 7 kts 264°
2026-04-30 19:59 48.72834 2.38539 290 ft 8 kts 264°
2026-04-30 19:59 48.72827 2.38448 291 ft 4 kts 263°
2026-04-30 20:00 48.72819 2.38378 291 ft 10 kts 255°
2026-04-30 20:00 48.72790 2.38216 290 ft 20 kts 254°
2026-04-30 20:00 48.72756 2.38036 291 ft 13 kts 253°
2026-04-30 20:00 48.72779 2.37889 291 ft 13 kts 319°
2026-04-30 20:01 48.72772 2.37565 290 ft 18 kts 254°
2026-04-30 20:01 48.72728 2.37367 291 ft 19 kts 252°
2026-04-30 20:01 48.72688 2.37153 291 ft 25 kts 254°
2026-04-30 20:02 48.72609 2.36734 288 ft 18 kts 249°
2026-04-30 20:02 48.72566 2.36549 285 ft 15 kts 255°
2026-04-30 20:03 48.72567 2.36379 284 ft 7 kts 349°
2026-04-30 20:03 48.72599 2.36368 284 ft 1 kts 346°
2026-04-30 20:03 48.72607 2.36364 284 ft 0 kts 346°
2026-04-30 20:03 48.72611 2.36363 284 ft 0 kts 346°